H1 CPF 2 NER 2023 11 14 9 318 01 glonass143 H2 2007501 9143 46805 2023 11 14 0 0 0 2023 11 17 23 45 0 900 1 1 0 0 0 1 H9 10 0 60262 0.00000 0 -12330339.656 -8096455.770 20823704.766 10 0 60262 900.00000 0 -9725590.030 -8528087.374 21996956.055 10 0 60262 1800.00000 0 -7044881.059 -9178150.604 22743528.183 10 0 60262 2700.00000 0 -4357158.193 -10042256.102 23048906.472 10 0 60262 3600.00000 0 -1730097.611 -11103789.730 22907117.921 10 0 60262 4500.00000 0 772480.417 -12334497.981 22320850.093 10 0 60262 5400.00000 0 3093030.966 -13695578.387 21301404.307 10 0 60262 6300.00000 0 5182437.253 -15139230.472 19868483.571 10 0 60262 7200.00000 0 7001808.188 -16610603.504 18049818.675 10 0 60262 8100.00000 0 8523846.671 -18050060.551 15880638.788 10 0 60262 9000.00000 0 9733732.216 -19395664.824 13402995.861 10 0 60262 9900.00000 0 10629481.588 -20585784.552 10664955.064 10 0 60262 10800.00000 0 11221772.844 -21561707.253 7719666.215 10 0 60262 11700.00000 0 11533240.596 -22270153.284 4624333.693 10 0 60262 12600.00000 0 11597272.714 -22665582.503 1439104.733 10 0 60262 13500.00000 0 11456359.653 -22712196.005 -1774102.206 10 0 60262 14400.00000 0 11160066.788 -22385547.608 -4952805.828 10 0 60262 15300.00000 0 10762716.258 -21673696.099 -8035182.900 10 0 60262 16200.00000 0 10320877.282 -20577848.633 -10961277.140 10 0 60262 17100.00000 0 9890772.050 -19112467.152 -13674171.742 10 0 60262 18000.00000 0 9525707.928 -17304832.472 -16121101.967 10 0 60262 18900.00000 0 9273645.508 -15194083.704 -18254485.563 10 0 60262 19800.00000 0 9175006.143 -12829772.796 -20032850.617 10 0 60262 20700.00000 0 9260812.254 -10269994.429 -21421642.646 10 0 60262 21600.00000 0 9551239.426 -7579169.214 -22393895.388 10 0 60262 22500.00000 0 10054641.719 -4825572.512 -22930752.550 10 0 60262 23400.00000 0 10767091.512 -2078711.689 -23021830.766 10 0 60262 24300.00000 0 11672453.422 593339.349 -22665417.231 10 0 60262 25200.00000 0 12742989.319 3126537.933 -21868498.557 10 0 60262 26100.00000 0 13940469.082 5463295.311 -20646620.673 10 0 60262 27000.00000 0 15217740.521 7554624.356 -19023582.725 10 0 60262 27900.00000 0 16520692.606 9361923.999 -17030971.035 10 0 60262 28800.00000 0 17790529.550 10858327.268 -14707542.233 10 0 60262 29700.00000 0 18966260.247 12029558.163 -12098467.519 10 0 60262 30600.00000 0 19987298.452 12874263.070 -9254452.735 10 0 60262 31500.00000 0 20796064.290 13403804.451 -6230751.381 10 0 60262 32400.00000 0 21340477.649 13641527.060 -3086089.854 10 0 60262 33300.00000 0 21576238.442 13621529.006 118474.081 10 0 60262 34200.00000 0 21468797.689 13386990.792 3320737.131 10 0 60262 35100.00000 0 20994936.348 12988133.858 6458557.421 10 0 60262 36000.00000 0 20143885.368 12479895.692 9471058.925 10 0 60262 36900.00000 0 18917939.657 11919420.210 12299809.905 10 0 60262 37800.00000 0 17332539.944 11363469.734 14889952.579 10 0 60262 38700.00000 0 15415818.667 10865867.884 17191262.377 10 0 60262 39600.00000 0 13207628.414 10475081.156 19159116.640 10 0 60262 40500.00000 0 10758092.807 10232040.927 20755354.581 10 0 60262 41400.00000 0 8125739.423 10168297.400 21949012.528 10 0 60262 42300.00000 0 5375291.530 10304582.958 22716920.820 10 0 60262 43200.00000 0 2575209.323 10649845.345 23044151.430 10 0 60262 44100.00000 0 -204918.423 11200791.457 22924307.983 10 0 60262 45000.00000 0 -2897025.215 11941961.371 22359652.754 10 0 60262 45900.00000 0 -5437151.457 12846330.160 21361067.998 10 0 60262 46800.00000 0 -7767856.631 13876413.166 19947851.931 10 0 60262 47700.00000 0 -9840359.816 14985829.324 18147352.638 10 0 60262 48600.00000 0 -11616320.347 16121257.891 15994446.096 10 0 60262 49500.00000 0 -13069185.115 17224707.294 13530867.507 10 0 60262 50400.00000 0 -14185046.767 18236001.334 10804407.966 10 0 60262 51300.00000 0 -14962977.333 19095378.484 7867991.332 10 0 60262 52200.00000 0 -15414823.753 19746094.826 4778648.677 10 0 60262 53100.00000 0 -15564474.206 20136920.509 1596410.059 10 0 60262 54000.00000 0 -15446626.568 20224423.679 -1616864.762 10 0 60262 54900.00000 0 -15105111.557 19974944.582 -4798693.483 10 0 60262 55800.00000 0 -14590841.983 19366175.340 -7887192.154 10 0 60262 56700.00000 0 -13959475.575 18388277.565 -10822285.253 10 0 60262 57600.00000 0 -13268891.058 17044489.466 -13546880.573 10 0 60262 58500.00000 0 -12576585.054 15351195.762 -16007985.289 10 0 60262 59400.00000 0 -11937100.690 13337456.523 -18157740.886 10 0 60262 60300.00000 0 -11399597.289 11044013.870 -19954356.476 10 0 60262 61200.00000 0 -11005664.316 8521817.595 -21362922.185 10 0 60262 62100.00000 0 -10787472.211 5830130.842 -22356086.927 10 0 60262 63000.00000 0 -10766338.224 3034294.564 -22914587.679 10 0 60262 63900.00000 0 -10951767.716 203243.609 -23027620.372 10 0 60262 64800.00000 0 -11341011.159 -2593122.530 -22693045.686 10 0 60262 65700.00000 0 -11919155.267 -5286605.415 -21917426.161 10 0 60262 66600.00000 0 -12659744.202 -7813299.518 -20715894.292 10 0 60262 67500.00000 0 -13525904.478 -10116003.224 -19111854.408 10 0 60262 68400.00000 0 -14471926.037 -12146349.613 -17136524.259 10 0 60262 69300.00000 0 -15445232.766 -13866569.336 -14828325.288 10 0 60262 70200.00000 0 -16388659.387 -15250813.369 -12232133.400 10 0 60262 71100.00000 0 -17242938.685 -16285981.756 -9398404.771 10 0 60262 72000.00000 0 -17949294.175 -16972025.123 -6382193.729 10 0 60262 72900.00000 0 -18452028.798 -17321707.836 -3242081.861 10 0 60262 73800.00000 0 -18701000.385 -17359844.173 -39039.299 10 0 60262 74700.00000 0 -18653879.361 -17122041.005 3164759.456 10 0 60262 75600.00000 0 -18278093.344 -16653001.109 6307141.956 10 0 60262 76500.00000 0 -17552376.492 -16004459.577 9327142.894 10 0 60262 77400.00000 0 -16467858.079 -15232841.057 12166184.337 10 0 60262 78300.00000 0 -15028644.178 -14396737.052 14769208.292 10 0 60262 79200.00000 0 -13251867.504 -13554309.772 17085739.890 10 0 60262 80100.00000 0 -11167202.692 -12760731.904 19070860.983 10 0 60262 81000.00000 0 -8815866.488 -12065769.784 20686075.845 10 0 60262 81900.00000 0 -6249143.584 -11511611.308 21900052.891 10 0 60262 82800.00000 0 -3526498.424 -11131029.476 22689228.674 10 0 60262 83700.00000 0 -713350.280 -10945958.346 23038263.075 10 0 60262 84600.00000 0 2121397.309 -10966540.998 22940337.244 10 0 60262 85500.00000 0 4907971.484 -11190689.444 22397288.691 10 0 60263 0.00000 0 7578381.979 -11604175.128 21419580.886 10 0 60263 900.00000 0 10069002.541 -12181246.927 20026106.903 10 0 60263 1800.00000 0 12322972.135 -12885750.720 18243831.657 10 0 60263 2700.00000 0 14292321.734 -13672704.929 16107277.039 10 0 60263 3600.00000 0 15939735.188 -14490265.990 13657860.185 10 0 60263 4500.00000 0 17239872.644 -15282001.761 10943096.387 10 0 60263 5400.00000 0 18180201.291 -15989377.429 8015681.383 10 0 60263 6300.00000 0 18761298.932 -16554349.159 4932470.344 10 0 60263 7200.00000 0 18996617.861 -16921955.697 1753373.173 10 0 60263 8100.00000 0 18911719.284 -17042797.930 -1459812.295 10 0 60263 9000.00000 0 18543010.856 -16875300.655 -4644606.160 10 0 60263 9900.00000 0 17936041.134 -16387659.876 -7739067.240 10 0 60263 10800.00000 0 17143423.625 -15559392.172 -10683004.220 10 0 60263 11700.00000 0 16222478.763 -14382419.349 -13419152.808 10 0 60263 12600.00000 0 15232694.214 -12861641.362 -15894295.203 10 0 60263 13500.00000 0 14233111.514 -11014972.214 -18060299.482 10 0 60263 14400.00000 0 13279750.018 -8872836.249 -19875058.323 10 0 60263 15300.00000 0 12423177.320 -6477145.085 -21303308.635 10 0 60263 16200.00000 0 11706328.872 -3879797.303 -22317316.263 10 0 60263 17100.00000 0 11162668.686 -1140762.962 -22897412.760 10 0 60263 18000.00000 0 10814768.408 1674167.665 -23032374.187 10 0 60263 18900.00000 0 10673364.181 4495877.814 -22719635.062 10 0 60263 19800.00000 0 10736930.482 7254557.165 -21965333.745 10 0 60263 20700.00000 0 10991788.279 9882364.984 -20784188.739 10 0 60263 21600.00000 0 11412742.357 12316013.390 -19199208.584 10 0 60263 22500.00000 0 11964220.407 14499164.045 -17241241.099 10 0 60263 23400.00000 0 12601865.407 16384539.353 -14948370.799 10 0 60263 24300.00000 0 13274513.751 17935661.198 -12365176.198 10 0 60263 25200.00000 0 13926475.366 19128145.806 -9541861.371 10 0 60263 26100.00000 0 14500019.305 19950501.821 -6533278.745 10 0 60263 27000.00000 0 14937959.668 20404399.482 -3397862.126 10 0 60263 27900.00000 0 15186232.439 20504400.947 -196490.871 10 0 60263 28800.00000 0 15196354.223 20277164.339 3008692.516 10 0 60263 29700.00000 0 14927658.845 19760156.175 6155488.193 10 0 60263 30600.00000 0 14349217.210 18999927.335 9182844.626 10 0 60263 31500.00000 0 13441359.138 18050025.963 12032040.541 10 0 60263 32400.00000 0 12196732.704 16968635.670 14647820.344 10 0 60263 33300.00000 0 10620855.972 15816038.735 16979461.222 10 0 60263 34200.00000 0 8732137.294 14652010.998 18981751.603 10 0 60263 35100.00000 0 6561362.423 13533257.736 20615862.615 10 0 60263 36000.00000 0 4150668.833 12510997.777 21850096.274 10 0 60263 36900.00000 0 1552048.812 11628796.746 22660496.561 10 0 60263 37800.00000 0 -1174557.675 10920739.733 23031312.170 10 0 60263 38700.00000 0 -3963502.517 10410019.487 22955302.317 10 0 60263 39600.00000 0 -6745909.745 10107998.903 22433879.907 10 0 60263 40500.00000 0 -9452295.062 10013786.919 21477089.141 10 0 60263 41400.00000 0 -12015217.124 10114345.577 20103417.577 10 0 60263 42300.00000 0 -14371851.565 10385123.937 18339445.651 10 0 60263 43200.00000 0 -16466381.641 10791192.580 16219339.565 10 0 60263 44100.00000 0 -18252106.664 11288831.355 13784196.420 10 0 60263 45000.00000 0 -19693180.667 11827503.954 11081253.422 10 0 60263 45900.00000 0 -20765908.971 12352136.292 8162975.691 10 0 60263 46800.00000 0 -21459548.492 12805602.651 5086039.859 10 0 60263 47700.00000 0 -21776578.270 13131314.297 1910232.978 10 0 60263 48600.00000 0 -21732428.897 13275800.656 -1302711.791 10 0 60263 49500.00000 0 -21354682.387 13191172.997 -4490319.715 10 0 60263 50400.00000 0 -20681776.546 12837365.415 -7590595.114 10 0 60263 51300.00000 0 -19761268.846 12184057.041 -10543233.572 10 0 60263 52200.00000 0 -18647733.653 11212192.934 -13290801.335 10 0 60263 53100.00000 0 -17400382.155 9915038.078 -15779858.110 10 0 60263 54000.00000 0 -16080506.028 8298718.718 -17962000.853 10 0 60263 54900.00000 0 -14748853.219 6382227.035 -19794807.838 10 0 60263 55800.00000 0 -13463046.903 4196887.892 -21242664.482 10 0 60263 56700.00000 0 -12275156.475 1785309.077 -22277454.948 10 0 60263 57600.00000 0 -11229522.789 -800141.870 -22879106.396 10 0 60263 58500.00000 0 -10360928.830 -3499271.280 -23035975.676 10 0 60263 59400.00000 0 -9693192.171 -6246323.382 -22745071.434 10 0 60263 60300.00000 0 -9238237.643 -8972481.038 -22012107.762 10 0 60263 61200.00000 0 -8995688.362 -11608499.567 -20851388.718 10 0 60263 62100.00000 0 -8952991.320 -14087364.686 -19285526.246 10 0 60263 63000.00000 0 -9086071.371 -16346864.576 -17344997.092 10 0 60263 63900.00000 0 -9360485.143 -18331969.641 -15067547.422 10 0 60263 64800.00000 0 -9733025.488 -19996921.594 -12497456.695 10 0 60263 65700.00000 0 -10153708.104 -21306945.589 -9684675.052 10 0 60263 66600.00000 0 -10568055.905 -22239514.787 -6683851.036 10 0 60263 67500.00000 0 -10919584.186 -22785115.548 -3553268.603 10 0 60263 68400.00000 0 -11152381.185 -22947482.222 -353714.185 10 0 60263 69300.00000 0 -11213674.631 -22743292.818 2852703.948 10 0 60263 70200.00000 0 -11056275.535 -22201339.356 6003760.883 10 0 60263 71100.00000 0 -10640795.678 -21361208.718 9038321.270 10 0 60263 72000.00000 0 -9937544.878 -20271530.222 11897522.993 10 0 60263 72900.00000 0 -8928027.638 -18987864.173 14525915.396 10 0 60263 73800.00000 0 -7605975.641 -17570320.427 16872530.246 10 0 60263 74700.00000 0 -5977872.029 -16081007.044 18891865.015 10 0 60263 75600.00000 0 -4062944.624 -14581415.919 20544760.000 10 0 60263 76500.00000 0 -1892627.300 -13129854.581 21799152.938 10 0 60263 77400.00000 0 490489.201 -11779031.162 22630697.109 10 0 60263 78300.00000 0 3034174.677 -10573892.956 23023231.600 10 0 60263 79200.00000 0 5678483.417 -9549808.291 22969094.971 10 0 60263 80100.00000 0 8358006.208 -8731167.119 22469276.485 10 0 60263 81000.00000 0 11004358.325 -8130458.323 21533401.811 10 0 60263 81900.00000 0 13548801.510 -7747861.981 20179553.128 10 0 60263 82800.00000 0 15924892.162 -7571373.466 18433926.415 10 0 60263 83700.00000 0 18071046.531 -7577454.098 16330331.758 10 0 60263 84600.00000 0 19932916.805 -7732181.095 13909545.388 10 0 60263 85500.00000 0 21465479.373 -7992848.538 11218525.135 10 0 60264 0.00000 0 22634748.113 -8309951.923 8309504.009 10 0 60264 900.00000 0 23419041.537 -8629472.709 5238977.323 10 0 60264 1800.00000 0 23809749.115 -8895365.612 2066606.810 10 0 60264 2700.00000 0 23811566.475 -9052143.614 -1145942.143 10 0 60264 3600.00000 0 23442187.805 -9047450.065 -4336203.345 10 0 60264 4500.00000 0 22731469.191 -8834508.203 -7442130.166 10 0 60264 5400.00000 0 21720098.175 -8374343.230 -10403308.676 10 0 60264 6300.00000 0 20457825.927 -7637681.619 -13162139.144 10 0 60264 7200.00000 0 19001336.968 -6606446.027 -15664962.109 10 0 60264 8100.00000 0 17411846.713 -5274781.344 -17863106.482 10 0 60264 9000.00000 0 15752528.500 -3649567.350 -19713838.935 10 0 60264 9900.00000 0 14085878.761 -1750395.219 -21181195.856 10 0 60264 10800.00000 0 12471131.347 390992.190 -22236681.836 10 0 60264 11700.00000 0 10961829.603 2731773.762 -22859821.354 10 0 60264 12600.00000 0 9603657.831 5219593.139 -23038553.328 10 0 60264 13500.00000 0 8432622.576 7794507.605 -22769461.357 10 0 60264 14400.00000 0 7473659.202 10391262.156 -22057835.624 10 0 60264 15300.00000 0 6739721.200 12941794.546 -20917565.627 10 0 60264 16200.00000 0 6231389.278 15377867.497 -19370866.124 10 0 60264 17100.00000 0 5937015.407 17633718.972 -17447841.748 10 0 60264 18000.00000 0 5833394.559 19648620.604 -15185898.825 10 0 60264 18900.00000 0 5886934.667 21369238.208 -12629015.845 10 0 60264 19800.00000 0 6055274.478 22751696.489 -9826886.694 10 0 60264 20700.00000 0 6289280.115 23763262.361 -6833953.365 10 0 60264 21600.00000 0 6535335.288 24383577.231 -3708346.979 10 0 60264 22500.00000 0 6737827.734 24605387.471 -510757.833 10 0 60264 23400.00000 0 6841726.266 24434743.269 2696743.369 10 0 60264 24300.00000 0 6795139.050 23890658.386 5851910.010 10 0 60264 25200.00000 0 6551744.615 23004245.877 8893526.224 10 0 60264 26100.00000 0 6072992.543 21817366.750 11762592.188 10 0 60264 27000.00000 0 5329980.605 20380848.810 14403465.111 10 0 60264 27900.00000 0 4304928.746 18752350.743 16764934.007 10 0 60264 28800.00000 0 2992187.324 16993961.092 18801207.775 10 0 60264 29700.00000 0 1398736.481 15169632.557 20472797.970 10 0 60264 30600.00000 0 -455845.255 13342558.593 21747279.821 10 0 60264 31500.00000 0 -2539942.969 11572601.433 22599917.362 10 0 60264 32400.00000 0 -4810975.840 9913878.262 23014141.159 10 0 60264 33300.00000 0 -7216932.965 8412605.498 22981869.823 10 0 60264 34200.00000 0 -9698312.093 7105290.372 22503669.236 10 0 60264 35100.00000 0 -12190382.147 6017344.537 21588746.346 10 0 60264 36000.00000 0 -14625676.894 5162176.930 20254777.256 10 0 60264 36900.00000 0 -16936617.255 4540803.322 18527572.304 10 0 60264 37800.00000 0 -19058154.131 4141988.503 16440583.801 10 0 60264 38700.00000 0 -20930322.375 3942914.852 14034265.014 10 0 60264 39600.00000 0 -22500599.717 3910349.073 11355291.954 10 0 60264 40500.00000 0 -23725972.234 4002257.801 8455662.258 10 0 60264 41400.00000 0 -24574619.784 4169803.750 5391688.090 10 0 60264 42300.00000 0 -25027150.444 4359637.825 2222902.393 10 0 60264 43200.00000 0 -25077331.736 4516389.739 -989100.231 10 0 60264 44100.00000 0 -24732287.553 4585251.072 -4181865.117 10 0 60264 45000.00000 0 -24012152.192 4514540.453 -7293297.610 10 0 60264 45900.00000 0 -22949195.945 4258141.155 -10262877.105 10 0 60264 46800.00000 0 -21586459.088 3777706.689 -13032840.630 10 0 60264 47700.00000 0 -19975952.006 3044539.791 -15549312.115 10 0 60264 48600.00000 0 -18176497.505 2041064.070 -17763354.764 10 0 60264 49500.00000 0 -16251306.412 761824.970 -19631925.663 10 0 60264 50400.00000 0 -14265388.693 -786023.336 -21118713.823 10 0 60264 51300.00000 0 -12282908.937 -2582766.660 -22194845.480 10 0 60264 52200.00000 0 -10364597.127 -4596714.086 -22839443.193 10 0 60264 53100.00000 0 -8565322.945 -6785292.194 -23040028.255 10 0 60264 54000.00000 0 -6931934.670 -9096605.224 -22792759.091 10 0 60264 54900.00000 0 -5501452.322 -11471396.635 -22102501.438 10 0 60264 55800.00000 0 -4299689.646 -13845330.744 -20982729.341 10 0 60264 56700.00000 0 -3340361.383 -16151499.770 -19455259.171 10 0 60264 57600.00000 0 -2624711.848 -18323052.194 -17549821.981 10 0 60264 58500.00000 0 -2141678.928 -20295833.199 -15303482.597 10 0 60264 59400.00000 0 -1868585.177 -22010927.419 -12759916.722 10 0 60264 60300.00000 0 -1772325.521 -23416998.249 -9968560.077 10 0 60264 61200.00000 0 -1811000.328 -24472326.329 -6983646.133 10 0 60264 62100.00000 0 -1935923.833 -25146462.436 -3863151.189 10 0 60264 63000.00000 0 -2093922.212 -25421426.067 -667667.402 10 0 60264 63900.00000 0 -2229823.432 -25292400.035 2540774.116 10 0 60264 64800.00000 0 -2289033.027 -24767892.538 5699907.093 10 0 60264 65700.00000 0 -2220086.431 -23869360.455 8748437.233 10 0 60264 66600.00000 0 -1977069.614 -22630310.183 11627229.146 10 0 60264 67500.00000 0 -1521805.447 -21094914.123 14280450.062 10 0 60264 68400.00000 0 -825713.180 -19316201.033 16656648.396 10 0 60264 69300.00000 0 128737.750 -17353896.097 18709746.566 10 0 60264 70200.00000 0 1347041.307 -15272000.891 20399929.376 10 0 60264 71100.00000 0 2822178.063 -13136213.970 21694411.372 10 0 60264 72000.00000 0 4534668.959 -11011299.190 22568068.946 10 0 60264 72900.00000 0 6453158.575 -8958510.739 23003925.525 10 0 60264 73800.00000 0 8535504.931 -7033181.327 22993480.874 10 0 60264 74700.00000 0 10730331.806 -5282573.103 22536878.347 10 0 60264 75600.00000 0 12978980.438 -3744079.940 21642906.745 10 0 60264 76500.00000 0 15217780.738 -2443855.178 20328836.402 10 0 60264 77400.00000 0 17380548.740 -1395921.339 18620092.034 10 0 60264 78300.00000 0 19401207.264 -601798.406 16549767.892 10 0 60264 79200.00000 0 21216421.295 -50665.713 14157993.662 10 0 60264 80100.00000 0 22768138.466 279949.761 11491162.548 10 0 60264 81000.00000 0 24005928.526 422987.951 8601035.692 10 0 60264 81900.00000 0 24889023.678 420223.442 5543739.765 10 0 60264 82800.00000 0 25387973.773 320255.600 2378676.929 10 0 60264 83700.00000 0 25485846.319 176206.624 -832631.606 10 0 60264 84600.00000 0 25178920.249 43225.537 -4027745.626 10 0 60264 85500.00000 0 24476843.670 -24095.335 -7144525.587 10 0 60265 0.00000 0 23402248.648 25719.024 -10122347.183 10 0 60265 900.00000 0 21989838.272 238598.220 -12903287.955 10 0 60265 1800.00000 0 20284985.854 652734.760 -15433258.068 10 0 60265 2700.00000 0 18341903.297 1296722.757 -17663057.969 10 0 60265 3600.00000 0 16221457.060 2188106.817 -19549337.898 10 0 60265 4500.00000 0 13988723.132 3332403.432 -21055442.003 10 0 60265 5400.00000 0 11710383.665 4722637.109 -22152120.423 10 0 60265 6300.00000 0 9452074.317 6339411.675 -22818095.778 10 0 60265 7200.00000 0 7275793.080 8151514.551 -23040473.396 10 0 60265 8100.00000 0 5237478.459 10117029.369 -22814987.815 10 0 60265 9000.00000 0 3384857.444 12184911.000 -22146081.202 10 0 60265 9900.00000 0 1755652.228 14296957.627 -21046812.572 10 0 60265 10800.00000 0 376219.352 16390097.912 -19538599.844 10 0 60265 11700.00000 0 -739323.229 18398898.125 -17650799.934 10 0 60265 12600.00000 0 -1589446.178 20258184.787 -15420135.110 10 0 60265 13500.00000 0 -2185022.819 21905673.535 -12889976.758 10 0 60265 14400.00000 0 -2548616.630 23284494.562 -10109500.450 10 0 60265 15300.00000 0 -2713273.621 24345509.181 -7132728.738 10 0 60265 16200.00000 0 -2720871.849 25049320.779 -4017480.348 10 0 60265 17100.00000 0 -2620098.863 25367896.170 -824246.261 10 0 60265 18000.00000 0 -2464143.473 25285729.631 2384985.244 10 0 60265 18900.00000 0 -2308200.155 24800501.138 5547931.599 10 0 60265 19800.00000 0 -2206892.187 23923201.477 8603223.468 10 0 60265 20700.00000 0 -2211722.882 22677719.258 11491593.214 10 0 60265 21600.00000 0 -2368662.929 21099907.364 14157021.289 10 0 60265 22500.00000 0 -2715975.971 19236168.000 16547818.522 10 0 60265 23400.00000 0 -3282374.419 17141615.503 18617623.628 10 0 60265 24300.00000 0 -4085583.517 14877893.444 20326297.164 10 0 60265 25200.00000 0 -5131374.571 12510736.682 21640695.202 10 0 60265 26100.00000 0 -6413108.630 10107379.408 22535308.356 10 0 60265 27000.00000 0 -7911810.667 7733916.314 22992754.385 10 0 60265 27900.00000 0 -9596772.322 5452725.787 23004115.262 10 0 60265 28800.00000 0 -11426659.281 3320061.353 22569112.378 10 0 60265 29700.00000 0 -13351078.478 1383910.537 21696116.433 10 0 60265 30600.00000 0 -15312541.123 -317790.715 20401991.492 10 0 60265 31500.00000 0 -17248740.941 -1758514.528 18711775.598 10 0 60265 32400.00000 0 -19095053.664 -2924012.740 16658203.349 10 0 60265 33300.00000 0 -20787154.232 -3812667.914 14281078.769 10 0 60265 34200.00000 0 -22263642.780 -4435309.580 11626509.748 10 0 60265 35100.00000 0 -23468569.691 -4814503.942 8746018.098 10 0 60265 36000.00000 0 -24353753.685 -4983347.348 5695541.915 10 0 60265 36900.00000 0 -24880795.204 -4983814.885 2534349.363 10 0 60265 37800.00000 0 -25022699.827 -4864734.343 -676115.023 10 0 60265 38700.00000 0 -24765042.627 -4679471.887 -3873428.750 10 0 60265 39600.00000 0 -24106623.651 -4483428.161 -6995410.602 10 0 60265 40500.00000 0 -23059586.172 -4331451.789 -9981336.215 10 0 60265 41400.00000 0 -21648992.116 -4275280.816 -12773125.553 10 0 60265 42300.00000 0 -19911872.073 -4361121.548 -15316478.354 10 0 60265 43200.00000 0 -17895789.588 -4627468.283 -17561934.830 10 0 60265 44100.00000 0 -15656979.878 -5103257.198 -19465840.552 10 0 60265 45000.00000 0 -13258141.039 -5806433.296 -20991196.542 10 0 60265 45900.00000 0 -10765970.273 -6742991.714 -22108378.088 10 0 60265 46800.00000 0 -8248548.087 -7906534.551 -22795708.564 10 0 60265 47700.00000 0 -5772679.615 -9278362.474 -23039877.487 10 0 60265 48600.00000 0 -3401303.610 -10828097.867 -22836195.152 10 0 60265 49500.00000 0 -1191076.570 -12514813.858 -22188679.340 10 0 60265 50400.00000 0 809768.104 -14288622.349 -21109972.827 10 0 60265 51300.00000 0 2563197.752 -16092654.904 -19621093.566 10 0 60265 52200.00000 0 4042722.061 -17865353.904 -17751022.570 10 0 60265 53100.00000 0 5234244.048 -19542978.270 -15536137.593 10 0 60265 54000.00000 0 6136386.480 -21062219.091 -13019503.606 10 0 60265 54900.00000 0 6760281.718 -22362815.711 -10250033.835 10 0 60265 55800.00000 0 7128835.429 -23390062.797 -7281537.653 10 0 60265 56700.00000 0 7275496.690 -24097103.307 -4171673.914 10 0 60265 57600.00000 0 7242587.687 -24446911.291 -980830.116 10 0 60265 58500.00000 0 7079264.630 -24413881.338 2229050.596 10 0 60265 59400.00000 0 6839196.968 -23984958.047 5395671.625 10 0 60265 60300.00000 0 6578063.685 -23160258.179 8457590.816 10 0 60265 61200.00000 0 6350973.018 -21953159.412 11355410.443 10 0 60265 62100.00000 0 6209914.953 -20389851.981 14032926.236 10 0 60265 63000.00000 0 6201354.312 -18508371.847 16438213.366 10 0 60265 63900.00000 0 6364066.100 -16357155.640 18524628.615 10 0 60265 64800.00000 0 6727304.522 -13993177.345 20251709.852 10 0 60265 65700.00000 0 7309382.951 -11479743.909 21585955.990 10 0 60265 66600.00000 0 8116724.923 -8884040.918 22501472.922 10 0 60265 67500.00000 0 9143426.571 -6274529.568 22980473.519 10 0 60265 68400.00000 0 10371349.635 -3718302.189 23013622.461 10 0 60265 69300.00000 0 11770742.176 -1278505.142 22600219.413 10 0 60265 70200.00000 0 13301362.161 988064.910 21748216.978 10 0 60265 71100.00000 0 14914058.223 3033092.516 20474072.719 10 0 60265 72000.00000 0 16552742.707 4818515.004 18802437.569 10 0 60265 72900.00000 0 18156675.599 6317861.191 16765685.832 10 0 60265 73800.00000 0 19662964.718 7517102.151 14403295.012 10 0 60265 74700.00000 0 21009178.009 8414979.072 11761086.591 10 0 60265 75600.00000 0 22135958.723 9022795.049 8890341.692 10 0 60265 76500.00000 0 22989533.606 9363680.072 5846808.214 10 0 60265 77400.00000 0 23524008.283 9471360.638 2689618.409 10 0 60265 78300.00000 0 23703352.576 9388486.426 -519862.026 10 0 60265 79200.00000 0 23502991.302 9164585.357 -3719230.713 10 0 60265 80100.00000 0 22910932.550 8853734.243 -6846267.306 10 0 60265 81000.00000 0 21928384.906 8512044.452 -9840149.739 10 0 60265 81900.00000 0 20569836.756 8195069.968 -12642643.550 10 0 60265 82800.00000 0 18862593.517 7955248.548 -15199240.321 10 0 60265 83700.00000 0 16845791.685 7839485.236 -17460222.466 10 0 60265 84600.00000 0 14568930.652 7886981.308 -19381633.192 10 0 60265 85500.00000 0 12089983.580 8127401.211 -20926132.569 99